星链-30397 (STARLINK-30397 )

导读

STARLINK-30397是美国SpaceX星链互联网卫星星座的一员,于北京时间2023年9月4日发射,归属美国太空探索技术公司。它承担星链网络的低轨通信任务,助力为全球提供高速卫星互联网接入,推动星链星座完成全球覆盖组网,服务民用通信、军事应用等多元场景。

Basic Information
目录编号:
57771
目录名称:
STARLINK-30397
国际标识:
2023-134A
轨道中心:
EARTH
卫星名称:
星链-30397
卫星全名:
星链-30397 (STARLINK-30397 )
卫星状态:
在轨 (已飞行1018 天)
发射日期:
2023-09-04 UTC
国别 :
美国 (US)
星等 :
--
Orbit Information
数据来源 国际轨道数据
星历时间: 2026-06-18T06:08:54+0800
14小时前
查看轨道信息
半长轴: 6861.185km
偏心率: 0.0001165
轨道倾角: 43.006°
近地点辐角 278.876°
升交点赤经 348.645°
平近点角 81.196°
近地点: 482.248km
远地点: 483.848km
周期: 94.267分钟
每日圈数: 15.275806
Detailed Information
固有亮度:
5
最大亮度:
0.3
卫星平台:
Starlink v2.0 mini
覆盖范围:
全球
运营商:
太空探索技术公司
运营商所在国:
美国
制造商(研发单位):
太空探索技术公司
制造商所在国:
美国
使用方式:
暂无
Satellite Introduction
星链(Starlink)计划是由太空探索技术公司(SpaceX)提出的一个巨型低轨卫星互联网星座项目,计划在2019年至2024年间在太空搭建由约1.2万颗卫星组成的“星链”网络,其中1584颗将部署在地球上空550千米处的近地轨道,并从2020年开始工作。该卫星仍在工作。
2D Orbit Map
3D Orbit Map
Orbit Altitude Analysis Chart
Orbit Inclination Analysis Chart
Orbit Comprehensive Analysis Chart
View Comprehensive Chart